Showing default

ION SCV-008, 55051

Orbit data source: Space-Track

ION SCV-008, 55051 is a payload satellite owned by D-ORBIT (IT) in SSO that was launched on Tue, 03 Jan 2023 UTC via an FALCON 9 launch vehicle from the Air Force Eastern Test Range (AFETR). Payload-class satellites include a variety of spacecraft equipped with specific instruments for various scientific and technological missions. These include communications satellites like Starlink; space stations such as the ISS; scientific satellites like the Hubble; Earth observation satellites from companies like Planet Labs, Umbra, and HawkEye 360; GPS; miniature CubeSats for education and research; and military/defense satellites.

Loading next visibility...
Identifier
55051, 2023-001AU
Orbit
SSO
Country
Flag of ITIT
Related business
Manufacturer
D-ORBIT
Mission
Operational Commercial Technology
Bus & Motor
ION-SC, PM200
Mass
220 kg wet, 150 kg dry
Launch date (UTC)
2023-01-03 (4 years ago)
Launch vehicle
FALCON 9
Launch site
Air Force Eastern Test Range (AFETR)
Object type
Payload
Rocket body
Debris
Shape & HBR
Box, 2.0 m
Radar Cross Section
0.240 m², Large (>1 m²)

Expand to show TLE details & history
Last TLE update: 18 hours ago

TLE from 18 hours ago
0 ION SCV-008
1 55051U 23001AU  26206.52813149  .00006180  00000-0  22182-3 0  9994
2 55051  97.5717 303.4998 0013562 232.8615 127.1387 15.28982000197195
Epoch: 2026-07-25T12:40Z
TLE epoch observation values (Epoch: 2026-07-25T12:40:30.560Z)
Latitude
0.00003°
Longitude
170.13334°
Altitude
487.576 km
Speed
7.618 km/s
True Right ascension
20h 13m 59s
True Declination
0° 00' 00"
Sunlit
Object was in full shadow at epoch
Visualization orbit readout
Latitude
Unknown
Longitude
Unknown
Altitude
Unknown
Speed
Unknown
Apparent Right ascension
Unknown
Apparent Declination
Unknown
Sunlit
N/A
Visualization observer readout
Local Sidereal Time
20:21:16
Azimuth
Unknown
Elevation
Unknown
Doppler factor
Unknown
Orbital elements
Apogee altitude
485.111 km
Perigee altitude
466.52 km
Semi-major axis
6,853.952 km
Eccentricity
0.00136
Inclination
97.5717°
RAAN
303.4998°
Arg. of periapsis
232.8615°
True anomaly
127.26246°
Mean anomaly
127.1387°
Eccentric anomaly
127.20059°
Mean motion
3.825 °/min
Orbital period
94.12 mins
BSTAR
0.00022182
Loading maneuver chart data...
Computing Atmospheric mass density...

Documentation

Showing up to 5 results
|